"Time","Value","Approval","myLocation"
"2023-05-06 00:00",24.252,"Approved","OW474"
"2023-05-06 01:00",24.252,"Approved","OW474"
"2023-05-06 02:00",24.255,"Approved","OW474"
"2023-05-06 03:00",24.256,"Approved","OW474"
"2023-05-06 04:00",24.25,"Approved","OW474"
"2023-05-06 05:00",24.255,"Approved","OW474"
"2023-05-06 06:00",24.251,"Approved","OW474"
"2023-05-06 07:00",24.251,"Approved","OW474"
"2023-05-06 08:00",24.249,"Approved","OW474"
"2023-05-06 09:00",24.248,"Approved","OW474"
"2023-05-06 10:00",24.245,"Approved","OW474"
"2023-05-06 11:00",24.244,"Approved","OW474"
"2023-05-06 12:00",24.247,"Approved","OW474"
"2023-05-06 13:00",24.243,"Approved","OW474"
"2023-05-06 14:00",24.244,"Approved","OW474"
"2023-05-06 15:00",24.247,"Approved","OW474"
"2023-05-06 16:00",24.246,"Approved","OW474"
"2023-05-06 17:00",24.247,"Approved","OW474"
"2023-05-06 18:00",24.247,"Approved","OW474"
"2023-05-06 19:00",24.246,"Approved","OW474"
"2023-05-06 20:00",24.246,"Approved","OW474"
"2023-05-06 21:00",24.248,"Approved","OW474"
"2023-05-06 22:00",24.247,"Approved","OW474"
"2023-05-06 23:00",24.249,"Approved","OW474"
"2023-05-07 00:00",24.243,"Approved","OW474"
"2023-05-07 01:00",24.249,"Approved","OW474"
"2023-05-07 02:00",24.245,"Approved","OW474"
"2023-05-07 03:00",24.246,"Approved","OW474"
"2023-05-07 04:00",24.25,"Approved","OW474"
"2023-05-07 05:00",24.244,"Approved","OW474"
"2023-05-07 06:00",24.244,"Approved","OW474"
"2023-05-07 07:00",24.248,"Approved","OW474"
"2023-05-07 08:00",24.248,"Approved","OW474"
"2023-05-07 09:00",24.25,"Approved","OW474"
"2023-05-07 10:00",24.247,"Approved","OW474"
"2023-05-07 11:00",24.244,"Approved","OW474"
"2023-05-07 12:00",24.244,"Approved","OW474"
"2023-05-07 13:00",24.244,"Approved","OW474"
"2023-05-07 14:00",24.244,"Approved","OW474"
"2023-05-07 15:00",24.247,"Approved","OW474"
"2023-05-07 16:00",24.248,"Approved","OW474"
"2023-05-07 17:00",24.249,"Approved","OW474"
"2023-05-07 18:00",24.249,"Approved","OW474"
"2023-05-07 19:00",24.249,"Approved","OW474"
"2023-05-07 20:00",24.245,"Approved","OW474"
"2023-05-07 21:00",24.242,"Approved","OW474"
"2023-05-07 22:00",24.244,"Approved","OW474"
"2023-05-07 23:00",24.245,"Approved","OW474"
"2023-05-08 00:00",24.241,"Approved","OW474"
"2023-05-08 01:00",24.237,"Approved","OW474"
"2023-05-08 02:00",24.238,"Approved","OW474"
"2023-05-08 03:00",24.238,"Approved","OW474"
"2023-05-08 04:00",24.24,"Approved","OW474"
"2023-05-08 05:00",24.244,"Approved","OW474"
"2023-05-08 06:00",24.243,"Approved","OW474"
"2023-05-08 07:00",24.239,"Approved","OW474"
"2023-05-08 08:00",24.242,"Approved","OW474"
"2023-05-08 09:00",24.24,"Approved","OW474"
"2023-05-08 10:00",24.236,"Approved","OW474"
"2023-05-08 11:00",24.241,"Approved","OW474"
"2023-05-08 12:00",24.233,"Approved","OW474"
"2023-05-08 13:00",24.237,"Approved","OW474"
"2023-05-08 14:00",24.239,"Approved","OW474"
"2023-05-08 15:00",24.239,"Approved","OW474"
"2023-05-08 16:00",24.233,"Approved","OW474"
"2023-05-08 17:00",24.235,"Approved","OW474"
"2023-05-08 18:00",24.231,"Approved","OW474"
"2023-05-08 19:00",24.23,"Approved","OW474"
"2023-05-08 20:00",24.229,"Approved","OW474"
"2023-05-08 21:00",24.23,"Approved","OW474"
"2023-05-08 22:00",24.231,"Approved","OW474"
"2023-05-08 23:00",24.23,"Approved","OW474"
"2023-05-09 00:00",24.233,"Approved","OW474"
"2023-05-09 01:00",24.234,"Approved","OW474"
"2023-05-09 02:00",24.236,"Approved","OW474"
"2023-05-09 03:00",24.236,"Approved","OW474"
"2023-05-09 04:00",24.241,"Approved","OW474"
"2023-05-09 05:00",24.241,"Approved","OW474"
"2023-05-09 06:00",24.242,"Approved","OW474"
"2023-05-09 07:00",24.244,"Approved","OW474"
"2023-05-09 08:00",24.246,"Approved","OW474"
"2023-05-09 09:00",24.241,"Approved","OW474"
"2023-05-09 10:00",24.245,"Approved","OW474"
"2023-05-09 11:00",24.242,"Approved","OW474"
"2023-05-09 12:00",24.246,"Approved","OW474"
"2023-05-09 13:00",24.246,"Approved","OW474"
"2023-05-09 14:00",24.247,"Approved","OW474"
"2023-05-09 15:00",24.253,"Approved","OW474"
"2023-05-09 16:00",24.254,"Approved","OW474"
"2023-05-09 17:00",24.248,"Approved","OW474"
"2023-05-09 18:00",24.247,"Approved","OW474"
"2023-05-09 19:00",24.244,"Approved","OW474"
"2023-05-09 20:00",24.242,"Approved","OW474"
"2023-05-09 21:00",24.243,"Approved","OW474"
"2023-05-09 22:00",24.243,"Approved","OW474"
"2023-05-09 23:00",24.24,"Approved","OW474"
"2023-05-10 00:00",24.241,"Approved","OW474"
"2023-05-10 01:00",24.235,"Approved","OW474"
"2023-05-10 02:00",24.234,"Approved","OW474"
"2023-05-10 03:00",24.238,"Approved","OW474"
"2023-05-10 04:00",24.241,"Approved","OW474"
"2023-05-10 05:00",24.245,"Approved","OW474"
"2023-05-10 06:00",24.243,"Approved","OW474"
"2023-05-10 07:00",24.239,"Approved","OW474"
"2023-05-10 08:00",24.241,"Approved","OW474"
"2023-05-10 09:00",24.238,"Approved","OW474"
"2023-05-10 10:00",24.238,"Approved","OW474"
"2023-05-10 11:00",24.237,"Approved","OW474"
"2023-05-10 12:00",24.238,"Approved","OW474"
"2023-05-10 13:00",24.236,"Approved","OW474"
"2023-05-10 14:00",24.237,"Approved","OW474"
"2023-05-10 15:00",24.233,"Approved","OW474"
"2023-05-10 16:00",24.237,"Approved","OW474"
"2023-05-10 17:00",24.233,"Approved","OW474"
"2023-05-10 18:00",24.235,"Approved","OW474"
"2023-05-10 19:00",24.232,"Approved","OW474"
"2023-05-10 20:00",24.232,"Approved","OW474"
"2023-05-10 21:00",24.225,"Approved","OW474"
"2023-05-10 22:00",24.232,"Approved","OW474"
"2023-05-10 23:00",24.227,"Approved","OW474"
"2023-05-11 00:00",24.229,"Approved","OW474"
"2023-05-11 01:00",24.23,"Approved","OW474"
"2023-05-11 02:00",24.231,"Approved","OW474"
"2023-05-11 03:00",24.234,"Approved","OW474"
"2023-05-11 04:00",24.236,"Approved","OW474"
"2023-05-11 05:00",24.242,"Approved","OW474"
"2023-05-11 06:00",24.245,"Approved","OW474"
"2023-05-11 07:00",24.247,"Approved","OW474"
"2023-05-11 08:00",24.245,"Approved","OW474"
"2023-05-11 09:00",24.244,"Approved","OW474"
"2023-05-11 10:00",24.245,"Approved","OW474"
"2023-05-11 11:00",24.245,"Approved","OW474"
"2023-05-11 12:00",24.248,"Approved","OW474"
"2023-05-11 13:00",24.25,"Approved","OW474"
"2023-05-11 14:00",24.247,"Approved","OW474"
"2023-05-11 15:00",24.25,"Approved","OW474"
"2023-05-11 16:00",24.252,"Approved","OW474"
"2023-05-11 17:00",24.254,"Approved","OW474"
"2023-05-11 18:00",24.25,"Approved","OW474"
"2023-05-11 19:00",24.249,"Approved","OW474"
"2023-05-11 20:00",24.244,"Approved","OW474"
"2023-05-11 21:00",24.244,"Approved","OW474"
"2023-05-11 22:00",24.24,"Approved","OW474"
"2023-05-11 23:00",24.239,"Approved","OW474"
"2023-05-12 00:00",24.236,"Approved","OW474"
"2023-05-12 01:00",24.239,"Approved","OW474"
"2023-05-12 02:00",24.242,"Approved","OW474"
"2023-05-12 03:00",24.242,"Approved","OW474"
"2023-05-12 04:00",24.245,"Approved","OW474"
"2023-05-12 05:00",24.251,"Approved","OW474"
"2023-05-12 06:00",24.25,"Approved","OW474"
"2023-05-12 07:00",24.255,"Approved","OW474"
"2023-05-12 08:00",24.253,"Approved","OW474"
"2023-05-12 09:00",24.256,"Approved","OW474"
"2023-05-12 10:00",24.256,"Approved","OW474"
"2023-05-12 11:00",24.257,"Approved","OW474"
"2023-05-12 12:00",24.258,"Approved","OW474"
"2023-05-12 13:00",24.256,"Approved","OW474"
"2023-05-12 14:00",24.256,"Approved","OW474"
"2023-05-12 15:00",24.258,"Approved","OW474"
"2023-05-12 16:00",24.258,"Approved","OW474"
"2023-05-12 17:00",24.255,"Approved","OW474"
"2023-05-12 18:00",24.257,"Approved","OW474"
"2023-05-12 19:00",24.257,"Approved","OW474"
"2023-05-12 20:00",24.255,"Approved","OW474"
"2023-05-12 21:00",24.254,"Approved","OW474"
"2023-05-12 22:00",24.251,"Approved","OW474"
"2023-05-12 23:00",24.254,"Approved","OW474"
"2023-05-13 00:00",24.249,"Approved","OW474"
"2023-05-13 01:00",24.254,"Approved","OW474"
"2023-05-13 02:00",24.255,"Approved","OW474"
"2023-05-13 03:00",24.254,"Approved","OW474"
"2023-05-13 04:00",24.258,"Approved","OW474"
"2023-05-13 05:00",24.263,"Approved","OW474"
"2023-05-13 06:00",24.258,"Approved","OW474"
"2023-05-13 07:00",24.261,"Approved","OW474"
"2023-05-13 08:00",24.262,"Approved","OW474"
"2023-05-13 09:00",24.262,"Approved","OW474"
"2023-05-13 10:00",24.261,"Approved","OW474"
"2023-05-13 11:00",24.262,"Approved","OW474"
"2023-05-13 12:00",24.265,"Approved","OW474"
"2023-05-13 13:00",24.265,"Approved","OW474"
"2023-05-13 14:00",24.267,"Approved","OW474"
"2023-05-13 15:00",24.265,"Approved","OW474"
"2023-05-13 16:00",24.268,"Approved","OW474"
"2023-05-13 17:00",24.264,"Approved","OW474"
"2023-05-13 18:00",24.264,"Approved","OW474"
"2023-05-13 19:00",24.259,"Approved","OW474"
"2023-05-13 20:00",24.257,"Approved","OW474"
"2023-05-13 21:00",24.25,"Approved","OW474"
"2023-05-13 22:00",24.245,"Approved","OW474"
"2023-05-13 23:00",24.244,"Approved","OW474"
"2023-05-14 00:00",24.242,"Approved","OW474"
"2023-05-14 01:00",24.24,"Approved","OW474"
"2023-05-14 02:00",24.239,"Approved","OW474"
"2023-05-14 03:00",24.24,"Approved","OW474"
"2023-05-14 04:00",24.25,"Approved","OW474"
"2023-05-14 05:00",24.258,"Approved","OW474"
"2023-05-14 06:00",24.257,"Approved","OW474"
"2023-05-14 07:00",24.258,"Approved","OW474"
"2023-05-14 08:00",24.254,"Approved","OW474"
"2023-05-14 09:00",24.253,"Approved","OW474"
"2023-05-14 10:00",24.25,"Approved","OW474"
"2023-05-14 11:00",24.249,"Approved","OW474"
"2023-05-14 12:00",24.253,"Approved","OW474"
"2023-05-14 13:00",24.247,"Approved","OW474"
"2023-05-14 14:00",24.249,"Approved","OW474"
"2023-05-14 15:00",24.249,"Approved","OW474"
"2023-05-14 16:00",24.247,"Approved","OW474"
"2023-05-14 17:00",24.239,"Approved","OW474"
"2023-05-14 18:00",24.241,"Approved","OW474"
"2023-05-14 19:00",24.241,"Approved","OW474"
"2023-05-14 20:00",24.234,"Approved","OW474"
"2023-05-14 21:00",24.234,"Approved","OW474"
"2023-05-14 22:00",24.237,"Approved","OW474"
"2023-05-14 23:00",24.228,"Approved","OW474"
"2023-05-15 00:00",24.228,"Approved","OW474"
"2023-05-15 01:00",24.231,"Approved","OW474"
"2023-05-15 02:00",24.232,"Approved","OW474"
"2023-05-15 03:00",24.236,"Approved","OW474"
"2023-05-15 04:00",24.247,"Approved","OW474"
"2023-05-15 05:00",24.25,"Approved","OW474"
"2023-05-15 06:00",24.252,"Approved","OW474"
"2023-05-15 07:00",24.249,"Approved","OW474"
"2023-05-15 08:00",24.25,"Approved","OW474"
"2023-05-15 09:00",24.246,"Approved","OW474"
"2023-05-15 10:00",24.241,"Approved","OW474"
"2023-05-15 11:00",24.238,"Approved","OW474"
"2023-05-15 12:00",24.237,"Approved","OW474"
"2023-05-15 13:00",24.239,"Approved","OW474"
"2023-05-15 14:00",24.241,"Approved","OW474"
"2023-05-15 15:00",24.242,"Approved","OW474"
"2023-05-15 16:00",24.24,"Approved","OW474"
"2023-05-15 17:00",24.237,"Approved","OW474"
"2023-05-15 18:00",24.236,"Approved","OW474"
"2023-05-15 19:00",24.239,"Approved","OW474"
"2023-05-15 20:00",24.237,"Approved","OW474"
"2023-05-15 21:00",24.236,"Approved","OW474"
"2023-05-15 22:00",24.236,"Approved","OW474"
"2023-05-15 23:00",24.234,"Approved","OW474"
"2023-05-16 00:00",24.233,"Approved","OW474"
"2023-05-16 01:00",24.236,"Approved","OW474"
"2023-05-16 02:00",24.232,"Approved","OW474"
"2023-05-16 03:00",24.238,"Approved","OW474"
"2023-05-16 04:00",24.244,"Approved","OW474"
"2023-05-16 05:00",24.254,"Approved","OW474"
"2023-05-16 06:00",24.246,"Approved","OW474"
"2023-05-16 07:00",24.257,"Approved","OW474"
"2023-05-16 08:00",24.267,"Approved","OW474"
"2023-05-16 09:00",24.265,"Approved","OW474"
"2023-05-16 10:00",24.266,"Approved","OW474"
"2023-05-16 11:00",24.262,"Approved","OW474"
"2023-05-16 12:00",24.26,"Approved","OW474"
"2023-05-16 13:00",24.259,"Approved","OW474"
"2023-05-16 14:00",24.262,"Approved","OW474"
"2023-05-16 15:00",24.267,"Approved","OW474"
"2023-05-16 16:00",24.268,"Approved","OW474"
"2023-05-16 17:00",24.266,"Approved","OW474"
"2023-05-16 18:00",24.265,"Approved","OW474"
"2023-05-16 19:00",24.26,"Approved","OW474"
"2023-05-16 20:00",24.258,"Approved","OW474"
"2023-05-16 21:00",24.254,"Approved","OW474"
"2023-05-16 22:00",24.252,"Approved","OW474"
"2023-05-16 23:00",24.251,"Approved","OW474"
"2023-05-17 00:00",24.25,"Approved","OW474"
"2023-05-17 01:00",24.253,"Approved","OW474"
"2023-05-17 02:00",24.248,"Approved","OW474"
"2023-05-17 03:00",24.256,"Approved","OW474"
"2023-05-17 04:00",24.253,"Approved","OW474"
"2023-05-17 05:00",24.263,"Approved","OW474"
"2023-05-17 06:00",24.26,"Approved","OW474"
"2023-05-17 07:00",24.256,"Approved","OW474"
"2023-05-17 08:00",24.257,"Approved","OW474"
"2023-05-17 09:00",24.258,"Approved","OW474"
"2023-05-17 10:00",24.258,"Approved","OW474"
"2023-05-17 11:00",24.255,"Approved","OW474"
"2023-05-17 12:00",24.257,"Approved","OW474"
"2023-05-17 13:00",24.256,"Approved","OW474"
"2023-05-17 14:00",24.258,"Approved","OW474"
"2023-05-17 15:00",24.257,"Approved","OW474"
"2023-05-17 16:00",24.256,"Approved","OW474"
"2023-05-17 17:00",24.254,"Approved","OW474"
"2023-05-17 18:00",24.249,"Approved","OW474"
"2023-05-17 19:00",24.248,"Approved","OW474"
"2023-05-17 20:00",24.245,"Approved","OW474"
"2023-05-17 21:00",24.244,"Approved","OW474"
"2023-05-17 22:00",24.236,"Approved","OW474"
"2023-05-17 23:00",24.233,"Approved","OW474"
"2023-05-18 00:00",24.235,"Approved","OW474"
"2023-05-18 01:00",24.232,"Approved","OW474"
"2023-05-18 02:00",24.237,"Approved","OW474"
"2023-05-18 03:00",24.238,"Approved","OW474"
"2023-05-18 04:00",24.249,"Approved","OW474"
"2023-05-18 05:00",24.247,"Approved","OW474"
"2023-05-18 06:00",24.249,"Approved","OW474"
"2023-05-18 07:00",24.253,"Approved","OW474"
"2023-05-18 08:00",24.249,"Approved","OW474"
"2023-05-18 09:00",24.252,"Approved","OW474"
"2023-05-18 10:00",24.253,"Approved","OW474"
"2023-05-18 11:00",24.244,"Approved","OW474"
"2023-05-18 12:00",24.25,"Approved","OW474"
"2023-05-18 13:00",24.251,"Approved","OW474"
"2023-05-18 14:00",24.253,"Approved","OW474"
"2023-05-18 15:00",24.257,"Approved","OW474"
"2023-05-18 16:00",24.256,"Approved","OW474"
"2023-05-18 17:00",24.26,"Approved","OW474"
"2023-05-18 18:00",24.256,"Approved","OW474"
"2023-05-18 19:00",24.258,"Approved","OW474"
"2023-05-18 20:00",24.258,"Approved","OW474"
"2023-05-18 21:00",24.258,"Approved","OW474"
"2023-05-18 22:00",24.257,"Approved","OW474"
"2023-05-18 23:00",24.261,"Approved","OW474"
"2023-05-19 00:00",24.264,"Approved","OW474"
"2023-05-19 01:00",24.262,"Approved","OW474"
"2023-05-19 02:00",24.263,"Approved","OW474"
"2023-05-19 03:00",24.267,"Approved","OW474"
"2023-05-19 04:00",24.272,"Approved","OW474"
"2023-05-19 05:00",24.275,"Approved","OW474"
"2023-05-19 06:00",24.28,"Approved","OW474"
"2023-05-19 07:00",24.277,"Approved","OW474"
"2023-05-19 08:00",24.278,"Approved","OW474"
"2023-05-19 09:00",24.277,"Approved","OW474"
"2023-05-19 10:00",24.279,"Approved","OW474"
"2023-05-19 11:00",24.279,"Approved","OW474"
"2023-05-19 12:00",24.285,"Approved","OW474"
"2023-05-19 13:00",24.284,"Approved","OW474"
"2023-05-19 14:00",24.285,"Approved","OW474"
"2023-05-19 15:00",24.285,"Approved","OW474"
"2023-05-19 16:00",24.285,"Approved","OW474"
"2023-05-19 17:00",24.284,"Approved","OW474"
"2023-05-19 18:00",24.277,"Approved","OW474"
"2023-05-19 19:00",24.277,"Approved","OW474"
"2023-05-19 20:00",24.277,"Approved","OW474"
"2023-05-19 21:00",24.273,"Approved","OW474"
"2023-05-19 22:00",24.272,"Approved","OW474"
"2023-05-19 23:00",24.27,"Approved","OW474"
"2023-05-20 00:00",24.27,"Approved","OW474"
"2023-05-20 01:00",24.265,"Approved","OW474"
"2023-05-20 02:00",24.267,"Approved","OW474"
"2023-05-20 03:00",24.27,"Approved","OW474"
"2023-05-20 04:00",24.278,"Approved","OW474"
"2023-05-20 05:00",24.283,"Approved","OW474"
"2023-05-20 06:00",24.282,"Approved","OW474"
"2023-05-20 07:00",24.283,"Approved","OW474"
"2023-05-20 08:00",24.283,"Approved","OW474"
"2023-05-20 09:00",24.283,"Approved","OW474"
"2023-05-20 10:00",24.282,"Approved","OW474"
"2023-05-20 11:00",24.284,"Approved","OW474"
"2023-05-20 12:00",24.287,"Approved","OW474"
"2023-05-20 13:00",24.291,"Approved","OW474"
"2023-05-20 14:00",24.288,"Approved","OW474"
"2023-05-20 15:00",24.293,"Approved","OW474"
"2023-05-20 16:00",24.292,"Approved","OW474"
"2023-05-20 17:00",24.288,"Approved","OW474"
"2023-05-20 18:00",24.285,"Approved","OW474"
"2023-05-20 19:00",24.286,"Approved","OW474"
"2023-05-20 20:00",24.284,"Approved","OW474"
"2023-05-20 21:00",24.284,"Approved","OW474"
"2023-05-20 22:00",24.277,"Approved","OW474"
"2023-05-20 23:00",24.28,"Approved","OW474"
"2023-05-21 00:00",24.277,"Approved","OW474"
"2023-05-21 01:00",24.277,"Approved","OW474"
"2023-05-21 02:00",24.276,"Approved","OW474"
"2023-05-21 03:00",24.286,"Approved","OW474"
"2023-05-21 04:00",24.287,"Approved","OW474"
"2023-05-21 05:00",24.286,"Approved","OW474"
"2023-05-21 06:00",24.291,"Approved","OW474"
"2023-05-21 07:00",24.291,"Approved","OW474"
"2023-05-21 08:00",24.291,"Approved","OW474"
"2023-05-21 09:00",24.293,"Approved","OW474"
"2023-05-21 10:00",24.299,"Approved","OW474"
"2023-05-21 11:00",24.295,"Approved","OW474"
"2023-05-21 12:00",24.296,"Approved","OW474"
"2023-05-21 13:00",24.3,"Approved","OW474"
"2023-05-21 14:00",24.299,"Approved","OW474"
"2023-05-21 15:00",24.299,"Approved","OW474"
"2023-05-21 16:00",24.302,"Approved","OW474"
"2023-05-21 17:00",24.301,"Approved","OW474"
"2023-05-21 18:00",24.303,"Approved","OW474"
"2023-05-21 19:00",24.304,"Approved","OW474"
"2023-05-21 20:00",24.304,"Approved","OW474"
"2023-05-21 21:00",24.301,"Approved","OW474"
"2023-05-21 22:00",24.293,"Approved","OW474"
"2023-05-21 23:00",24.294,"Approved","OW474"
"2023-05-22 00:00",24.291,"Approved","OW474"
"2023-05-22 01:00",24.297,"Approved","OW474"
"2023-05-22 02:00",24.295,"Approved","OW474"
"2023-05-22 03:00",24.298,"Approved","OW474"
"2023-05-22 04:00",24.301,"Approved","OW474"
"2023-05-22 05:00",24.299,"Approved","OW474"
"2023-05-22 06:00",24.302,"Approved","OW474"
"2023-05-22 07:00",24.302,"Approved","OW474"
"2023-05-22 08:00",24.303,"Approved","OW474"
"2023-05-22 09:00",24.303,"Approved","OW474"
"2023-05-22 10:00",24.306,"Approved","OW474"
"2023-05-22 11:00",24.303,"Approved","OW474"
"2023-05-22 12:00",24.296,"Approved","OW474"
"2023-05-22 13:00",24.298,"Approved","OW474"
"2023-05-22 14:00",24.301,"Approved","OW474"
"2023-05-22 15:00",24.302,"Approved","OW474"
"2023-05-22 16:00",24.302,"Approved","OW474"
"2023-05-22 17:00",24.303,"Approved","OW474"
"2023-05-22 18:00",24.302,"Approved","OW474"
"2023-05-22 19:00",24.308,"Approved","OW474"
"2023-05-22 20:00",24.306,"Approved","OW474"
"2023-05-22 21:00",24.307,"Approved","OW474"
"2023-05-22 22:00",24.308,"Approved","OW474"
"2023-05-22 23:00",24.309,"Approved","OW474"
"2023-05-23 00:00",24.306,"Approved","OW474"
"2023-05-23 01:00",24.307,"Approved","OW474"
"2023-05-23 02:00",24.306,"Approved","OW474"
"2023-05-23 03:00",24.307,"Approved","OW474"
"2023-05-23 04:00",24.305,"Approved","OW474"
"2023-05-23 05:00",24.305,"Approved","OW474"
"2023-05-23 06:00",24.306,"Approved","OW474"
"2023-05-23 07:00",24.305,"Approved","OW474"
"2023-05-23 08:00",24.311,"Approved","OW474"
"2023-05-23 09:00",24.308,"Approved","OW474"
"2023-05-23 10:00",24.304,"Approved","OW474"
"2023-05-23 11:00",24.304,"Approved","OW474"
"2023-05-23 12:00",24.306,"Approved","OW474"
"2023-05-23 13:00",24.308,"Approved","OW474"
"2023-05-23 14:00",24.309,"Approved","OW474"
"2023-05-23 15:00",24.308,"Approved","OW474"
"2023-05-23 16:00",24.31,"Approved","OW474"
"2023-05-23 17:00",24.307,"Approved","OW474"
"2023-05-23 18:00",24.311,"Approved","OW474"
"2023-05-23 19:00",24.309,"Approved","OW474"
"2023-05-23 20:00",24.311,"Approved","OW474"
"2023-05-23 21:00",24.308,"Approved","OW474"
"2023-05-23 22:00",24.305,"Approved","OW474"
"2023-05-23 23:00",24.307,"Approved","OW474"
"2023-05-24 00:00",24.306,"Approved","OW474"
"2023-05-24 01:00",24.312,"Approved","OW474"
"2023-05-24 02:00",24.304,"Approved","OW474"
"2023-05-24 03:00",24.305,"Approved","OW474"
"2023-05-24 04:00",24.306,"Approved","OW474"
"2023-05-24 05:00",24.31,"Approved","OW474"
"2023-05-24 06:00",24.305,"Approved","OW474"
"2023-05-24 07:00",24.309,"Approved","OW474"
"2023-05-24 08:00",24.309,"Approved","OW474"
"2023-05-24 09:00",24.307,"Approved","OW474"
"2023-05-24 10:00",24.309,"Approved","OW474"
"2023-05-24 11:00",24.308,"Approved","OW474"
"2023-05-24 12:00",24.307,"Approved","OW474"
"2023-05-24 13:00",24.312,"Approved","OW474"
"2023-05-24 14:00",24.317,"Approved","OW474"
"2023-05-24 15:00",24.32,"Approved","OW474"
"2023-05-24 16:00",24.312,"Approved","OW474"
"2023-05-24 17:00",24.313,"Approved","OW474"
"2023-05-24 18:00",24.312,"Approved","OW474"
"2023-05-24 19:00",24.316,"Approved","OW474"
"2023-05-24 20:00",24.314,"Approved","OW474"
"2023-05-24 21:00",24.315,"Approved","OW474"
"2023-05-24 22:00",24.313,"Approved","OW474"
"2023-05-24 23:00",24.306,"Approved","OW474"
"2023-05-25 00:00",24.306,"Approved","OW474"
"2023-05-25 01:00",24.299,"Approved","OW474"
"2023-05-25 02:00",24.299,"Approved","OW474"
"2023-05-25 03:00",24.308,"Approved","OW474"
"2023-05-25 04:00",24.303,"Approved","OW474"
"2023-05-25 05:00",24.31,"Approved","OW474"
"2023-05-25 06:00",24.313,"Approved","OW474"
"2023-05-25 07:00",24.312,"Approved","OW474"
"2023-05-25 08:00",24.311,"Approved","OW474"
"2023-05-25 09:00",24.312,"Approved","OW474"
"2023-05-25 10:00",24.31,"Approved","OW474"
"2023-05-25 11:00",24.316,"Approved","OW474"
"2023-05-25 12:00",24.312,"Approved","OW474"
"2023-05-25 13:00",24.312,"Approved","OW474"
"2023-05-25 14:00",24.317,"Approved","OW474"
"2023-05-25 15:00",24.314,"Approved","OW474"
"2023-05-25 16:00",24.311,"Approved","OW474"
"2023-05-25 17:00",24.314,"Approved","OW474"
"2023-05-25 18:00",24.313,"Approved","OW474"
"2023-05-25 19:00",24.311,"Approved","OW474"
"2023-05-25 20:00",24.307,"Approved","OW474"
"2023-05-25 21:00",24.307,"Approved","OW474"
"2023-05-25 22:00",24.306,"Approved","OW474"
"2023-05-25 23:00",24.297,"Approved","OW474"
"2023-05-26 00:00",24.298,"Approved","OW474"
"2023-05-26 01:00",24.302,"Approved","OW474"
"2023-05-26 02:00",24.302,"Approved","OW474"
"2023-05-26 03:00",24.305,"Approved","OW474"
"2023-05-26 04:00",24.311,"Approved","OW474"
"2023-05-26 05:00",24.315,"Approved","OW474"
"2023-05-26 06:00",24.319,"Approved","OW474"
"2023-05-26 07:00",24.32,"Approved","OW474"
"2023-05-26 08:00",24.323,"Approved","OW474"
"2023-05-26 09:00",24.325,"Approved","OW474"
"2023-05-26 10:00",24.321,"Approved","OW474"
"2023-05-26 11:00",24.319,"Approved","OW474"
"2023-05-26 12:00",24.321,"Approved","OW474"
"2023-05-26 13:00",24.323,"Approved","OW474"
"2023-05-26 14:00",24.327,"Approved","OW474"
"2023-05-26 15:00",24.324,"Approved","OW474"
"2023-05-26 16:00",24.32,"Approved","OW474"
"2023-05-26 17:00",24.317,"Approved","OW474"
"2023-05-26 18:00",24.32,"Approved","OW474"
"2023-05-26 19:00",24.316,"Approved","OW474"
"2023-05-26 20:00",24.316,"Approved","OW474"
"2023-05-26 21:00",24.315,"Approved","OW474"
"2023-05-26 22:00",24.311,"Approved","OW474"
"2023-05-26 23:00",24.311,"Approved","OW474"
"2023-05-27 00:00",24.314,"Approved","OW474"
"2023-05-27 01:00",24.314,"Approved","OW474"
"2023-05-27 02:00",24.316,"Approved","OW474"
"2023-05-27 03:00",24.323,"Approved","OW474"
"2023-05-27 04:00",24.326,"Approved","OW474"
"2023-05-27 05:00",24.332,"Approved","OW474"
"2023-05-27 06:00",24.33,"Approved","OW474"
"2023-05-27 07:00",24.329,"Approved","OW474"
"2023-05-27 08:00",24.334,"Approved","OW474"
"2023-05-27 09:00",24.33,"Approved","OW474"
"2023-05-27 10:00",24.332,"Approved","OW474"
"2023-05-27 11:00",24.336,"Approved","OW474"
"2023-05-27 12:00",24.338,"Approved","OW474"
"2023-05-27 13:00",24.34,"Approved","OW474"
"2023-05-27 14:00",24.343,"Approved","OW474"
"2023-05-27 15:00",24.348,"Approved","OW474"
"2023-05-27 16:00",24.348,"Approved","OW474"